EW8295 Weather Reports


time (UTC)temp
F
wind
direction
speed
knots
gust
knots
rain 1hr
in
rain 24hr
in
rain mn
in
humidity
%
barometer
mb
20260507031317 55 31 0.0 3.5 0.00 0.00 0.00 95 1009.2
20260507030824 56 31 0.0 2.6 0.00 0.00 0.00 95 1009.2
20260507030326 56 96 0.0 0.9 0.00 0.00 0.00 95 1009.2
20260507025828 57 97 0.0 0.9 0.00 0.00 0.00 95 1009.2
20260507025337 58 38 0.0 0.0 0.00 0.00 0.00 96 1009.0
20260507024819 58 38 0.0 2.6 0.00 0.00 0.00 95 1008.8
20260507024322 59 43 0.0 2.6 0.00 0.00 0.00 96 1008.7
20260507023845 59 237 0.0 1.7 0.00 0.00 0.00 96 1008.5
20260507023326 59 256 0.0 4.3 0.00 0.00 0.00 96 1008.5
20260507022815 59 263 0.9 3.5 0.00 0.00 0.00 96 1008.1
20260507022323 60 227 0.0 2.6 0.00 0.00 0.00 96 1008.0
20260507021828 59 229 0.0 3.5 0.00 0.00 0.00 96 1008.0
20260507021333 59 229 0.0 3.5 0.00 0.00 0.00 96 1008.1
20260507020834 59 229 0.0 1.7 0.00 0.00 0.00 96 1008.1
20260507020319 59 223 0.9 1.7 0.00 0.00 0.00 96 1008.1
20260507015822 59 219 0.0 3.5 0.00 0.00 0.00 96 1008.1
20260507015331 59 219 0.0 3.5 0.00 0.00 0.00 96 1008.1
20260507014836 59 222 0.0 1.7 0.00 0.00 0.00 96 1008.1
20260507014342 59 222 0.0 0.0 0.00 0.00 0.00 96 1007.9
20260507013825 59 222 0.0 0.0 0.00 0.00 0.00 96 1008.0
20260507013328 59 222 0.0 0.9 0.00 0.00 0.00 96 1008.0
20260507012820 59 222 0.0 2.6 0.00 0.00 0.00 96 1008.1
20260507012322 59 223 0.0 1.7 0.00 0.00 0.00 96 1008.0
20260507011847 59 223 0.0 0.9 0.00 0.00 0.00 96 1007.8
20260507011330 59 222 0.0 0.9 0.00 0.00 0.00 96 1007.8
20260507010835 59 223 0.0 0.9 0.00 0.00 0.00 96 1007.8
20260507010323 59 222 0.0 0.0 0.00 0.00 0.00 96 1007.9
20260507005828 59 222 0.0 0.0 0.00 0.00 0.00 96 1008.0
20260507005355 59 222 0.0 2.6 0.00 0.00 0.00 96 1007.9
20260507004818 59 222 0.0 2.6 0.00 0.00 0.00 96 1007.8
20260507004320 59 216 0.0 0.0 0.00 0.00 0.00 96 1007.6
20260507003824 59 216 0.0 0.0 0.00 0.00 0.00 96 1007.5
20260507003351 59 216 0.0 0.0 0.00 0.00 0.00 96 1007.6
20260507002818 59 215 0.0 1.7 0.00 0.00 0.00 96 1007.8
20260507002324 59 215 0.0 2.6 0.00 0.00 0.00 96 1008.0
20260507001830 59 254 0.0 2.6 0.00 0.00 0.00 96 1007.9
20260507001332 59 261 0.0 3.5 0.00 0.00 0.00 95 1007.9
20260507000837 59 238 0.9 3.5 0.00 0.00 0.00 95 1008.0
20260507000321 59 185 0.0 2.6 0.00 0.00 0.00 95 1007.9
20260506235851 59 213 0.9 2.6 0.00 0.00 0.00 96 1007.9
20260506235333 59 205 0.0 2.6 0.00 0.00 0.00 96 1007.9
20260506234855 59 209 0.9 3.5 0.00 0.00 0.00 96 1007.7
20260506234337 59 222 0.0 3.5 0.00 0.00 0.00 96 1007.7
20260506233818 59 216 0.9 3.5 0.00 0.00 0.00 96 1007.6
20260506233320 59 213 0.0 2.6 0.00 0.00 0.00 95 1007.7
20260506232847 59 213 0.9 2.6 0.00 0.00 0.00 95 1007.6
20260506232328 59 225 0.0 2.6 0.00 0.00 0.00 95 1007.5
20260506231853 59 225 0.0 2.6 0.00 0.00 0.00 95 1007.5
20260506231321 59 217 0.0 1.7 0.00 0.00 0.00 95 1007.4
20260506230843 59 217 0.0 1.7 0.00 0.00 0.00 95 1007.4
20260506230327 59 243 0.0 3.5 0.00 0.00 0.00 95 1007.4
20260506225831 59 244 0.9 3.5 0.00 0.00 0.00 95 1007.3
20260506225333 59 205 0.0 1.7 0.00 0.00 0.00 95 1007.2
20260506224855 59 205 0.0 0.9 0.00 0.00 0.00 95 1007.3
20260506224318 59 205 0.0 2.6 0.00 0.00 0.00 95 1007.4
20260506223823 59 205 0.0 2.6 0.00 0.00 0.00 95 1007.3
20260506223327 59 210 0.0 0.9 0.00 0.00 0.00 95 1007.3
20260506222831 59 209 0.0 2.6 0.00 0.00 0.00 95 1007.2
20260506222334 59 211 0.0 2.6 0.00 0.00 0.00 95 1007.1
20260506221820 59 230 0.0 0.9 0.00 0.00 0.00 95 1007.3
20260506221323 59 244 0.0 1.7 0.00 0.00 0.00 95 1007.4
20260506220831 59 306 0.0 0.9 0.00 0.00 0.00 95 1007.3
20260506220317 59 306 0.0 2.6 0.00 0.00 0.00 95 1007.3
20260506215822 60 306 0.0 2.6 0.00 0.00 0.00 95 1007.2
20260506215324 60 223 0.0 0.9 0.00 0.00 0.00 95 1007.0
20260506214828 60 223 0.0 1.7 0.00 0.00 0.00 95 1007.2
20260506214333 60 223 0.0 1.7 0.00 0.00 0.00 95 1007.2
20260506213836 60 231 0.0 0.9 0.00 0.00 0.00 95 1007.1
20260506213318 60 231 0.0 0.9 0.00 0.00 0.00 95 1007.1
20260506212820 60 186 0.0 0.0 0.00 0.00 0.00 95 1007.2
20260506212325 60 186 0.0 0.9 0.00 0.00 0.00 95 1007.3
20260506211829 60 186 0.0 2.6 0.00 0.00 0.00 94 1007.4
20260506211320 60 137 0.0 2.6 0.00 0.00 0.00 94 1007.4
20260506210822 60 221 0.0 0.0 0.00 0.00 0.00 94 1007.4
20260506210326 60 221 0.0 0.9 0.00 0.00 0.00 94 1007.5
20260506205832 60 221 0.0 0.9 0.00 0.00 0.00 94 1007.6
20260506205335 60 221 0.0 2.6 0.00 0.00 0.00 94 1007.7
20260506204819 60 180 0.0 0.0 0.00 0.00 0.00 94 1007.8
20260506204341 60 180 0.0 0.0 0.00 0.00 0.00 94 1007.8
20260506203822 60 265 0.0 0.0 0.00 0.00 0.00 94 1007.8
20260506203343 60 265 0.0 0.0 0.00 0.00 0.00 94 1007.8
20260506202828 60 265 0.0 0.0 0.00 0.00 0.00 94 1007.9
20260506202330 60 265 0.0 0.0 0.00 0.00 0.00 94 1008.0
20260506201815 60 279 0.0 0.0 0.00 0.00 0.00 94 1007.9
20260506201324 60 279 0.0 3.5 0.00 0.00 0.00 94 1007.8
20260506200827 60 279 0.0 3.5 0.00 0.00 0.00 94 1007.8
20260506200331 60 205 0.0 0.0 0.00 0.00 0.00 94 1007.9
20260506195838 60 205 0.0 0.0 0.00 0.00 0.00 93 1007.9
20260506195322 60 194 0.0 1.7 0.00 0.00 0.00 93 1008.1
20260506194824 60 194 0.0 1.7 0.00 0.00 0.00 93 1008.0
20260506194330 60 228 0.0 1.7 0.00 0.00 0.00 93 1008.1
20260506193854 60 229 0.0 2.6 0.00 0.00 0.00 93 1008.1
20260506193320 60 229 0.0 2.6 0.00 0.00 0.00 93 1008.2
20260506192822 60 150 0.0 1.7 0.00 0.00 0.00 93 1008.2
20260506192327 60 214 0.0 0.9 0.00 0.00 0.00 93 1008.2
20260506191832 60 214 0.0 0.0 0.00 0.00 0.00 93 1008.2
20260506191356 60 214 0.0 2.6 0.00 0.00 0.00 93 1008.5
20260506190822 60 211 0.0 2.6 0.00 0.00 0.00 92 1008.5
20260506190347 60 163 0.0 1.7 0.00 0.00 0.00 92 1008.5
20260506185830 60 264 0.0 1.7 0.00 0.00 0.00 92 1008.5
20260506185317 60 265 0.0 2.6 0.00 0.00 0.00 92 1008.6
20260506184820 60 265 0.9 2.6 0.00 0.00 0.00 92 1008.9
20260506184326 60 274 0.0 0.9 0.00 0.00 0.00 91 1008.9
20260506183827 60 274 0.0 4.3 0.00 0.00 0.00 91 1008.9
20260506183332 60 303 0.9 4.3 0.00 0.00 0.00 91 1008.8
20260506182834 60 156 0.0 1.7 0.00 0.00 0.00 90 1008.7
20260506182323 61 122 0.0 2.6 0.00 0.00 0.00 90 1008.6
20260506181825 61 120 0.0 1.7 0.00 0.00 0.00 90 1008.5
20260506181352 61 116 0.0 1.7 0.00 0.00 0.00 89 1008.5
20260506180819 61 116 0.0 3.5 0.00 0.00 0.00 89 1008.6
20260506180321 62 118 0.9 3.5 0.00 0.00 0.00 88 1008.6
20260506175826 62 119 0.0 1.7 0.00 0.00 0.00 87 1008.9
20260506175349 62 118 0.0 1.7 0.00 0.00 0.00 86 1008.9
20260506174815 63 71 0.0 0.0 0.00 0.00 0.00 85 1009.1
20260506174324 63 71 0.0 0.0 0.00 0.00 0.00 84 1009.2
20260506173826 64 69 0.0 0.9 0.00 0.00 0.00 84 1009.3
20260506173331 64 67 0.0 0.9 0.00 0.00 0.00 83 1009.5
20260506172818 64 226 0.0 0.0 0.00 0.00 0.00 82 1009.7
20260506172320 65 226 0.0 0.0 0.00 0.00 0.00 81 1009.8
20260506171824 65 226 0.0 0.0 0.00 0.00 0.00 80 1009.7
20260506171328 65 227 0.0 2.6 0.00 0.00 0.00 79 1009.9
20260506170819 65 225 0.0 3.5 0.00 0.00 0.00 77 1010.0
20260506170321 66 207 0.9 2.6 0.00 0.00 0.00 77 1010.0
20260506165826 66 184 0.0 3.5 0.00 0.00 0.00 76 1010.1
20260506165330 67 212 0.9 3.5 0.00 0.00 0.00 74 1010.0
20260506164819 67 219 0.0 3.5 0.00 0.00 0.00 74 1009.9
20260506164323 67 198 0.9 4.3 0.00 0.00 0.00 73 1009.8
20260506163829 68 233 0.9 4.3 0.00 0.00 0.00 73 1009.8
20260506163331 68 234 0.9 2.6 0.00 0.00 0.00 74 1009.8
20260506162837 68 255 0.0 3.5 0.00 0.00 0.00 73 1009.7
20260506162319 68 232 0.9 3.5 0.00 0.00 0.00 74 1009.7
20260506161824 68 207 0.9 4.3 0.00 0.00 0.00 73 1009.7
20260506161328 68 178 1.7 6.1 0.00 0.00 0.00 73 1009.9
20260506160832 68 200 1.7 6.1 0.00 0.00 0.00 73 1009.9
20260506160337 68 217 0.0 4.3 0.00 0.00 0.00 73 1010.1
20260506155818 68 227 2.6 6.1 0.00 0.00 0.00 72 1010.1
20260506155323 68 196 0.0 7.0 0.00 0.00 0.00 72 1010.3
20260506154826 68 253 2.6 6.1 0.00 0.00 0.00 71 1010.2
20260506154328 68 259 0.9 6.1 0.00 0.00 0.00 71 1010.1
20260506153834 69 201 1.7 4.3 0.00 0.00 0.00 71 1010.1
20260506153336 69 239 1.7 4.3 0.00 0.00 0.00 70 1010.1
20260506152838 69 263 0.9 3.5 0.00 0.00 0.00 71 1010.0
20260506152323 69 262 0.0 3.5 0.00 0.00 0.00 71 1009.9
20260506151825 69 236 1.7 6.1 0.00 0.00 0.00 70 1010.0
20260506151347 69 205 1.7 6.1 0.00 0.00 0.00 70 1010.0
20260506150847 69 252 1.7 5.2 0.00 0.00 0.00 71 1010.1
20260506150331 69 220 0.9 5.2 0.00 0.00 0.00 71 1010.3
20260506145833 69 194 0.9 4.3 0.00 0.00 0.00 72 1010.1
20260506145319 69 179 0.9 4.3 0.00 0.00 0.00 72 1010.2
20260506144821 69 218 1.7 4.3 0.00 0.00 0.00 72 1010.3
20260506144343 69 206 0.9 4.3 0.00 0.00 0.00 72 1010.4
20260506143847 69 157 1.7 7.0 0.00 0.00 0.00 72 1010.4
20260506143330 68 216 2.6 7.0 0.00 0.00 0.00 74 1010.2
20260506142830 68 227 0.9 7.0 0.00 0.00 0.00 75 1010.4
20260506142337 68 220 1.7 7.0 0.00 0.00 0.00 74 1010.3
20260506141841 67 205 0.9 7.0 0.00 0.00 0.00 75 1010.5
20260506141327 67 192 2.6 5.2 0.00 0.00 0.00 75 1010.5
20260506140828 67 247 1.7 7.0 0.00 0.00 0.00 75 1010.6
20260506140318 67 238 0.0 5.2 0.00 0.00 0.00 76 1010.7
20260506135820 67 224 0.9 3.5 0.00 0.00 0.00 76 1010.5
20260506135344 67 205 0.9 3.5 0.00 0.00 0.00 76 1010.3
20260506134824 67 218 0.9 3.5 0.00 0.00 0.00 76 1010.4
20260506134352 66 211 0.0 8.7 0.00 0.00 0.00 77 1010.3
20260506133814 66 236 1.7 8.7 0.00 0.00 0.00 78 1010.2
20260506133324 66 174 0.0 4.3 0.00 0.00 0.00 78 1010.3
20260506132829 66 232 1.7 4.3 0.00 0.00 0.00 78 1010.4
20260506132331 66 223 0.0 1.7 0.00 0.00 0.00 79 1010.4
20260506131836 66 194 0.0 2.6 0.00 0.00 0.00 80 1010.4
20260506131320 65 229 0.9 2.6 0.00 0.00 0.00 80 1010.4
20260506130824 65 210 0.9 2.6 0.00 0.00 0.00 80 1010.4
20260506130332 65 103 0.9 3.5 0.00 0.00 0.00 80 1010.7
20260506125819 65 186 0.9 4.3 0.00 0.00 0.00 81 1010.7
20260506125325 65 224 1.7 4.3 0.00 0.00 0.00 81 1010.9
20260506124829 65 217 0.9 3.5 0.00 0.00 0.00 82 1010.9
20260506124316 64 207 0.9 3.5 0.00 0.00 0.00 83 1011.0
20260506123825 64 113 0.0 3.5 0.00 0.00 0.00 84 1011.0
20260506123327 64 203 0.9 3.5 0.00 0.00 0.00 84 1011.0
20260506122835 63 248 0.0 2.6 0.00 0.00 0.00 84 1011.1
20260506122357 63 175 0.0 1.7 0.00 0.00 0.00 86 1010.9
20260506121821 62 189 0.0 3.5 0.00 0.00 0.00 85 1011.0
20260506121325 62 189 0.0 3.5 0.00 0.00 0.00 86 1010.9
20260506120849 62 220 0.0 2.6 0.00 0.00 0.00 86 1011.0
20260506120334 62 235 0.0 2.6 0.00 0.00 0.00 86 1011.0
20260506115818 61 151 0.0 0.9 0.00 0.00 0.00 87 1010.9
20260506115326 61 151 0.0 0.9 0.00 0.00 0.00 87 1011.0
20260506114830 61 184 0.0 0.9 0.00 0.00 0.00 87 1010.9
20260506114353 61 194 0.0 6.1 0.00 0.00 0.00 87 1011.0
20260506113835 61 186 0.9 6.1 0.00 0.00 0.00 88 1010.8
20260506113315 61 112 0.0 0.9 0.00 0.00 0.00 88 1010.7
20260506112820 60 198 0.0 0.0 0.00 0.00 0.00 88 1010.7
20260506112322 60 198 0.0 2.6 0.00 0.00 0.00 88 1010.9
20260506111826 60 217 0.0 2.6 0.00 0.00 0.00 88 1011.1
20260506111330 60 204 0.0 0.9 0.00 0.00 0.00 88 1011.2
20260506110834 60 233 0.0 2.6 0.00 0.00 0.00 88 1011.1
20260506110320 59 238 0.0 2.6 0.00 0.00 0.00 88 1011.1
20260506105840 59 157 0.0 0.0 0.00 0.00 0.00 88 1011.1
20260506105324 59 156 0.0 0.0 0.00 0.00 0.00 88 1011.0
20260506104830 59 157 0.0 0.0 0.00 0.00 0.00 88 1011.1
20260506104332 59 157 0.0 4.3 0.00 0.00 0.00 88 1011.1
20260506103816 59 116 0.0 4.3 0.00 0.00 0.00 88 1011.0
20260506103345 59 224 0.9 2.6 0.00 0.00 0.00 88 1010.9
20260506102851 59 211 0.0 2.6 0.00 0.00 0.00 88 1010.9
20260506102332 59 198 0.0 1.7 0.00 0.00 0.00 88 1010.8
20260506101819 59 199 0.0 1.7 0.00 0.00 0.00 88 1010.8
20260506101343 59 199 0.0 3.5 0.00 0.00 0.00 87 1010.9
20260506100829 59 202 0.0 3.5 0.00 0.00 0.00 87 1010.8
20260506100333 59 186 0.0 0.9 0.00 0.00 0.00 87 1010.8
20260506095819 59 186 0.0 1.7 0.00 0.00 0.00 87 1010.8
20260506095323 59 163 0.0 1.7 0.00 0.00 0.00 87 1010.7
20260506094827 59 167 0.0 0.0 0.00 0.00 0.00 87 1010.8
20260506094351 59 167 0.0 1.7 0.00 0.00 0.00 87 1010.7
20260506093835 59 192 0.0 2.6 0.00 0.00 0.00 87 1010.7
20260506093322 59 214 0.0 2.6 0.00 0.00 0.00 87 1010.8
20260506092828 59 174 0.0 0.9 0.00 0.00 0.00 87 1011.0
20260506092330 59 157 0.0 2.6 0.00 0.00 0.00 86 1010.9
20260506091832 59 159 0.0 2.6 0.00 0.00 0.00 86 1010.9
20260506091319 59 178 0.0 1.7 0.00 0.00 0.00 86 1010.8
20260506090822 59 180 0.0 1.7 0.00 0.00 0.00 86 1010.8
20260506090324 59 201 0.0 1.7 0.00 0.00 0.00 86 1010.8
20260506085835 59 200 0.0 0.0 0.00 0.00 0.00 85 1010.8
20260506085339 59 193 0.0 0.0 0.00 0.00 0.00 85 1010.9
20260506084843 59 101 0.0 0.9 0.00 0.00 0.00 85 1011.0
20260506084326 60 168 0.0 0.9 0.00 0.00 0.00 85 1011.1
20260506083833 60 168 0.0 0.0 0.00 0.00 0.00 85 1010.9
20260506083316 60 168 0.0 0.0 0.00 0.00 0.00 85 1010.9
20260506082825 60 168 0.0 0.9 0.00 0.00 0.00 85 1010.9
20260506082328 60 149 0.0 2.6 0.00 0.00 0.00 84 1010.8
20260506081831 60 176 0.0 2.6 0.00 0.00 0.00 84 1010.8
20260506081318 60 178 0.0 1.7 0.00 0.00 0.00 84 1010.8
20260506080825 60 158 0.0 0.0 0.00 0.00 0.00 84 1010.9
20260506080327 60 158 0.0 0.0 0.00 0.00 0.00 84 1010.9
20260506073316 60 165 0.0 2.6 0.00 0.00 0.00 82 1011.0
20260506072821 60 128 0.0 2.6 0.00 0.00 0.00 82 1011.0
20260506072323 60 136 0.0 0.9 0.00 0.00 0.00 82 1011.1
20260506071828 60 136 0.0 1.7 0.00 0.00 0.00 82 1011.1
20260506071331 61 134 0.0 1.7 0.00 0.00 0.00 81 1011.0
20260506070856 61 186 0.0 1.7 0.00 0.00 0.00 81 1010.9
20260506070325 61 139 0.0 3.5 0.00 0.00 0.00 81 1010.9
20260506062348 61 206 0.0 0.9 0.00 0.00 0.00 80 1010.8
20260506061853 61 208 0.0 2.6 0.00 0.00 0.00 80 1010.8
20260506061339 61 169 0.0 0.0 0.00 0.00 0.00 80 1010.8
20260506060824 61 159 0.0 2.6 0.00 0.00 0.00 80 1010.8
20260506060326 61 194 0.0 2.6 0.00 0.00 0.00 80 1010.8
20260506051326 63 188 0.9 3.5 0.00 0.00 0.00 78 1011.3
20260506050831 63 208 0.9 3.5 0.00 0.00 0.00 77 1011.3
20260506050335 63 240 0.0 5.2 0.00 0.00 0.00 77 1011.4
20260506044834 63 190 1.7 5.2 0.00 0.00 0.00 76 1011.4
20260506044336 63 207 1.7 5.2 0.00 0.00 0.00 76 1011.4
20260506043821 64 169 1.7 3.5 0.00 0.00 0.00 76 1011.5
20260506043327 64 239 0.9 5.2 0.00 0.00 0.00 75 1011.4
20260506042831 64 211 0.9 5.2 0.00 0.00 0.00 75 1011.4
20260506042315 64 232 1.7 5.2 0.00 0.00 0.00 75 1011.5
20260506041823 64 188 2.6 5.2 0.00 0.00 0.00 75 1011.4
20260506041327 64 167 0.9 4.3 0.00 0.00 0.00 74 1011.4
20260506040832 64 217 0.9 4.3 0.00 0.00 0.00 74 1011.5
20260506040316 64 198 0.0 2.6 0.00 0.00 0.00 73 1011.5
20260506035829 64 210 0.0 4.3 0.00 0.00 0.00 73 1011.4
20260506035337 64 219 2.6 4.3 0.00 0.00 0.00 73 1011.5
20260506034822 64 194 0.9 3.5 0.00 0.00 0.00 73 1011.5
20260506034328 64 214 0.9 4.3 0.00 0.00 0.00 72 1011.6
20260506033833 64 225 1.7 7.0 0.00 0.00 0.00 72 1011.5
20260506033317 64 200 2.6 7.0 0.00 0.00 0.00 71 1011.6
20260506032825 64 232 0.9 5.2 0.00 0.00 0.00 71 1011.6
20260506032331 64 231 1.7 7.0 0.00 0.00 0.00 71 1011.6
20260506031834 64 214 2.6 7.0 0.00 0.00 0.00 71 1011.5